Flag for Luxembourg Weather past 2 weeks in Luxembourg, Luxembourg

Now
37 °F

Partly sunny.


Feels Like: 31 °F
Forecast: 40 / 46 °F
Wind: 8 mph from Southwest

Location: Luxembourg Airport

Current Time: Dec 21, 2014 at 9:58:50 AM

Latest Report: Dec 21, 2014 at 9:20 AM


Visibility: 5 mi

Pressure: 30.48 "Hg

Humidity: 100%

Dew point: 37 °F

Location of LuxembourgLocation

Historic Weather in Luxembourg — Graph

°F

Luxembourg temperature yesterday

Maximum temperature yesterday: 41 °F (at 11:50 AM)
Minimum temperature yesterday: 36 °F (at 4:20 AM)
Average temperature yesterday: 39 °F

Past Weeks' High & Low Weather Summary

 TemperatureHumidityPressure
High52 °F (Dec 18, 10:50 AM)100% (Dec 6, 8:20 AM)30.48 "Hg (Dec 6, 8:20 AM)
Low28 °F (Dec 15, 7:20 AM)75% (Dec 8, 3:20 PM)29.59 "Hg (Dec 12, 2:20 PM)
Average40 °F95%30.02 "Hg
* Reported Dec 6 8:20 AM — Dec 21 8:50 AM, Luxembourg, Weather by CustomWeather, © 2014

Note: Actual official high and low records may vary slightly from our data, if they occured in-between our weather recording intervals... More about our weather records

Advertising

Luxembourg weather history for previous 24 hours

 ConditionsComfort  
Time TempWeatherWind HumidityBarometerVisibility
8:50 AM
Dec 21
37 °FPartly sunny.7 mph100%30.48 "Hg5 mi
8:20 AM37 °FPassing clouds.6 mph100%30.45 "HgN/A
7:50 AM37 °FPassing clouds.7 mph100%30.45 "HgN/A
7:20 AM37 °FPartly cloudy.7 mph93%30.45 "HgN/A
6:50 AM36 °FPassing clouds.5 mph100%30.45 "HgN/A
6:20 AM36 °FPassing clouds.6 mph100%30.45 "HgN/A
5:50 AM36 °FPassing clouds.3 mph100%30.45 "HgN/A
5:20 AM37 °FPassing clouds.3 mph100%30.45 "HgN/A
4:50 AM37 °FPassing clouds.6 mph100%30.45 "HgN/A
4:20 AM37 °FPassing clouds.6 mph100%30.45 "HgN/A
3:50 AM37 °FPassing clouds.7 mph100%30.45 "HgN/A
3:20 AM39 °FChilly.7 mph93%30.45 "HgN/A
2:50 AM39 °FChilly.7 mph93%30.45 "HgN/A
2:20 AM39 °FChilly.7 mph93%30.42 "HgN/A
1:50 AM41 °FQuite cool.10 mph87%30.42 "HgN/A
1:20 AM41 °FQuite cool.10 mph93%30.42 "HgN/A
12:50 AM41 °FPassing clouds.9 mph87%30.39 "HgN/A
12:20 AM41 °FPassing clouds.8 mph93%30.39 "HgN/A
11:50 PM
Dec 20
41 °FPassing clouds.13 mph93%30.39 "HgN/A
11:20 PM41 °FPassing clouds.12 mph87%30.39 "HgN/A
10:50 PM41 °FPassing clouds.13 mph87%30.36 "HgN/A
10:20 PM41 °FPassing clouds.13 mph93%30.36 "HgN/A
9:50 PM41 °FPassing clouds.13 mph87%30.33 "HgN/A
9:20 PM41 °FPassing clouds.15 mph87%30.33 "HgN/A
8:50 PM41 °FPassing clouds.13 mph87%30.33 "HgN/A
8:20 PM41 °FPassing clouds.13 mph87%30.30 "HgN/A
7:50 PM41 °FPassing clouds.13 mph87%30.30 "HgN/A
7:20 PM41 °FPassing clouds.14 mph87%30.27 "HgN/A
6:50 PM41 °FPassing clouds.14 mph87%30.27 "HgN/A
6:20 PM41 °FPassing clouds.14 mph87%30.24 "HgN/A
5:50 PM41 °FPassing clouds.14 mph93%30.24 "HgN/A
5:20 PM41 °FPassing clouds.14 mph93%30.24 "HgN/A
4:50 PM41 °FPassing clouds.12 mph87%30.24 "HgN/A
4:20 PM41 °FPartly sunny.14 mph87%30.21 "HgN/A
3:50 PM41 °FPartly sunny.15 mph87%30.21 "HgN/A
3:20 PM41 °FPartly sunny.17 mph87%30.21 "HgN/A
2:50 PM39 °FRain. Fog.24 mph93%30.21 "Hg2 mi
2:20 PM41 °FLight rain. Partly sunny.16 mph93%30.21 "HgN/A
1:50 PM41 °FPartly sunny.15 mph93%30.21 "HgN/A
1:20 PM41 °FPartly sunny.17 mph93%30.21 "HgN/A
12:50 PM41 °FPartly sunny.16 mph93%30.21 "HgN/A
12:20 PM41 °FPartly sunny.16 mph93%30.21 "HgN/A
11:50 AM41 °FPartly sunny.12 mph87%30.24 "HgN/A
11:20 AM39 °FBroken clouds.15 mph93%30.24 "HgN/A
10:50 AM39 °FDrizzle. Broken clouds.14 mph93%30.24 "HgN/A
10:20 AM39 °FPartly sunny.12 mph93%30.24 "HgN/A
9:50 AM39 °FPartly sunny.9 mph93%30.24 "HgN/A
9:20 AM37 °FBroken clouds.10 mph100%30.27 "HgN/A
Weather by CustomWeather, © 2014

See weather overviewHow to use our weather pages